Weather History for KJDD - January, 2013

Change the Weather History Date:

Thursday, January 3, 2013

  Actual Average (KTYR) Record (KTYR)
Temperature  
Mean Temperature 37 °F 46 °F  
Max Temperature 48 °F 56 °F 80 °F (2009)
Min Temperature 26 °F 37 °F 9 °F (1979)
Degree Days  
Heating Degree Days 28 19  
Month to date heating degree days 57  
Since 1 July heating degree days 958  
Cooling Degree Days 0 0  
Month to date cooling degree days 0  
Year to date cooling degree days 0  
Moisture  
Dew Point 30 °F    
Average Humidity 74    
Maximum Humidity 100    
Minimum Humidity 43    
Precipitation  
Precipitation 0.00 in 0.11 in 1.61 in (1934)
Month to date precipitation 0.32  
Year to date precipitation 0.32  
Snow  
Snow 0.00 in - - ()
Month to date snowfall  
Since 1 July snowfall  
Snow Depth -    
Sea Level Pressure  
Sea Level Pressure 30.41 in    
Wind  
Wind Speed 3 mph (NNW)    
Max Wind Speed 13 mph    
Max Gust Speed -    
Visibility 8 miles    
Events      
T = Trace of Precipitation, MM = Missing Value Source: NWS Daily Summary

Daily Weather History Graph

Daily Weather History Graph

Search for Another Location

Airport or City:

Trip Planner

Search our weather history database for the weather conditions in past years. The results will help you decide how hot, cold, wet, or windy it might be!

Date:

Astronomy

Jan. 03, 2013 Rise Set
Actual Time 7:24 AM CST 5:28 PM CST
Civil Twilight 6:57 AM CST 5:55 PM CST
Nautical Twilight 6:27 AM CST 6:26 PM CST
Astronomical Twilight 5:57 AM CST 6:56 PM CST
Moon 11:41 PM CST (1/3) 10:58 AM CST (1/3)
Length of Visible Light 10h 58m
Length of Day
10h 03m
Waning Gibbous, 65% of the Moon is Illuminated
Jan 3
Waning Gibbous
Jan 4
Last Quarter
Jan 11
New
Jan 18
First Quarter
Jan 26
Full

Hourly Weather History & Observations

Time (CST) Temp. Windchill Dew Point Humidity Pressure Visibility Wind Dir Wind Speed Gust Speed Precip Events Conditions
12:15 AM 32.0 °F - 30.2 °F 93% 30.35 in 7.0 mi Calm Calm - N/A   Unknown
12:35 AM 32.0 °F - 30.2 °F 93% 30.35 in 6.0 mi Calm Calm - N/A   Mist
12:55 AM 32.0 °F - 30.2 °F 93% 30.35 in 5.0 mi Calm Calm - N/A   Mist
1:15 AM 30.2 °F 26.7 °F 28.4 °F 93% 30.35 in 6.0 mi West 3.5 mph - N/A   Mist
1:35 AM 30.2 °F - 28.4 °F 93% 30.34 in 5.0 mi Calm Calm - N/A   Mist
1:55 AM 30.2 °F - 28.4 °F 93% 30.35 in 5.0 mi Calm Calm - N/A   Mist
2:15 AM 28.4 °F 24.6 °F 28.4 °F 100% 30.35 in 5.0 mi West 3.5 mph - N/A   Mist
2:35 AM 30.2 °F 26.7 °F 28.4 °F 93% 30.35 in 5.0 mi WSW 3.5 mph - N/A   Mist
2:55 AM 30.2 °F 26.7 °F 30.2 °F 100% 30.35 in 5.0 mi WSW 3.5 mph - N/A   Mist
3:15 AM 30.2 °F - 28.4 °F 93% 30.35 in 5.0 mi Calm Calm - N/A   Mist
3:35 AM 30.2 °F - 28.4 °F 93% 30.36 in 3.0 mi Calm Calm - N/A   Mist
3:55 AM 30.2 °F 26.7 °F 28.4 °F 93% 30.37 in 5.0 mi WSW 3.5 mph - N/A   Mist
4:15 AM 32.0 °F - 30.2 °F 93% 30.37 in 5.0 mi Calm Calm - N/A   Mist
4:35 AM 30.2 °F - 28.4 °F 93% 30.37 in 5.0 mi Calm Calm - N/A   Mist
4:55 AM 30.2 °F 26.7 °F 30.2 °F 100% 30.37 in 5.0 mi WSW 3.5 mph - N/A   Mist
5:15 AM 30.2 °F 24.3 °F 30.2 °F 100% 30.38 in 4.0 mi WSW 5.8 mph - N/A   Mist
5:35 AM 30.2 °F 26.7 °F 28.4 °F 93% 30.38 in 3.0 mi WSW 3.5 mph - N/A   Mist
5:55 AM 30.2 °F 26.7 °F 28.4 °F 93% 30.38 in 4.0 mi West 3.5 mph - N/A   Mist
6:15 AM 28.4 °F - 26.6 °F 93% 30.39 in 4.0 mi Calm Calm - N/A   Mist
6:35 AM 28.4 °F - 26.6 °F 93% 30.39 in 3.0 mi Calm Calm - N/A   Mist
7:15 AM 28.4 °F - 28.4 °F 100% 30.42 in 3.0 mi Calm Calm - N/A   Mist
7:35 AM 26.6 °F - 26.6 °F 100% 30.42 in 3.0 mi Calm Calm - N/A   Mist
7:55 AM 30.2 °F - 28.4 °F 93% 30.42 in 4.0 mi Calm Calm - N/A   Mist
8:15 AM 32.0 °F - 30.2 °F 93% 30.43 in 4.0 mi Calm Calm - N/A   Mist
8:35 AM 33.8 °F 30.8 °F 32.0 °F 93% 30.44 in 5.0 mi NNW 3.5 mph - N/A   Mist
8:55 AM 33.8 °F 27.7 °F 32.0 °F 93% 30.45 in 5.0 mi NNW 6.9 mph - N/A   Mist
9:15 AM 35.6 °F 29.2 °F 32.0 °F 87% 30.46 in 6.0 mi NNW 8.1 mph - N/A   Mist
9:35 AM 37.4 °F 32.1 °F 32.0 °F 81% 30.46 in 7.0 mi North 6.9 mph - N/A   Unknown
9:55 AM 37.4 °F 32.8 °F 32.0 °F 81% 30.46 in 8.0 mi North 5.8 mph - N/A   Unknown
10:15 AM 39.2 °F 33.0 °F 32.0 °F 75% 30.46 in 8.0 mi North 9.2 mph - N/A   Unknown
10:35 AM 41.0 °F 35.8 °F 32.0 °F 70% 30.46 in 8.0 mi North 8.1 mph - N/A   Unknown
10:55 AM 42.8 °F 38.6 °F 32.0 °F 66% 30.45 in 8.0 mi North 6.9 mph - N/A   Unknown
11:15 AM 44.6 °F 42.2 °F 32.0 °F 61% 30.45 in 9.0 mi North 4.6 mph - N/A   Unknown
11:35 AM 44.6 °F 40.2 °F 30.2 °F 57% 30.45 in 9.0 mi North 8.1 mph - N/A   Unknown
11:55 AM 46.4 °F 41.5 °F 30.2 °F 53% 30.43 in 10.0 mi North 10.4 mph - N/A   Unknown
12:15 PM 46.4 °F 42.4 °F 28.4 °F 50% 30.42 in 10.0 mi NNE 8.1 mph - N/A   Unknown
12:35 PM 46.4 °F 43.5 °F 28.4 °F 50% 30.40 in 10.0 mi NE 5.8 mph - N/A   Unknown
12:55 PM 48.2 °F - 30.2 °F 50% 30.39 in 10.0 mi North 9.2 mph - N/A   Unknown
1:15 PM 48.2 °F - 28.4 °F 46% 30.37 in 10.0 mi North 12.7 mph - N/A   Unknown
1:35 PM 48.2 °F - 30.2 °F 50% 30.38 in 10.0 mi NNE 4.6 mph - N/A   Unknown
1:55 PM 48.2 °F - 28.4 °F 46% 30.40 in 10.0 mi ENE 3.5 mph - N/A   Unknown
2:15 PM 48.2 °F - 28.4 °F 46% 30.39 in 10.0 mi NNE 4.6 mph - N/A   Unknown
2:35 PM 48.2 °F - 28.4 °F 46% 30.40 in 10.0 mi North 9.2 mph - N/A   Unknown
2:55 PM 48.2 °F - 26.6 °F 43% 30.40 in 10.0 mi North 4.6 mph - N/A   Unknown
3:15 PM 48.2 °F - 28.4 °F 46% 30.40 in 10.0 mi NNE 3.5 mph - N/A   Unknown
3:35 PM 48.2 °F - 28.4 °F 46% 30.40 in 10.0 mi North 4.6 mph - N/A   Unknown
3:55 PM 48.2 °F - 28.4 °F 46% 30.40 in 10.0 mi North 8.1 mph - N/A   Unknown
4:15 PM 48.2 °F - 28.4 °F 46% 30.41 in 10.0 mi North 4.6 mph - N/A   Unknown
4:55 PM 46.4 °F 43.5 °F 28.4 °F 50% 30.42 in 10.0 mi NNW 5.8 mph - N/A   Unknown
5:15 PM 46.4 °F 44.3 °F 28.4 °F 50% 30.42 in 10.0 mi NNW 4.6 mph - N/A   Unknown
5:35 PM 44.6 °F 43.1 °F 30.2 °F 57% 30.42 in 10.0 mi North 3.5 mph - N/A   Unknown
5:55 PM 44.6 °F - 30.2 °F 57% 30.42 in 10.0 mi Calm Calm - N/A   Unknown
6:15 PM 44.6 °F - 30.2 °F 57% 30.44 in 10.0 mi Calm Calm - N/A   Unknown
6:35 PM 42.8 °F 41.1 °F 32.0 °F 66% 30.44 in 10.0 mi NW 3.5 mph - N/A   Unknown
6:55 PM 44.6 °F - 30.2 °F 57% 30.45 in 10.0 mi Calm Calm - N/A   Unknown
7:15 PM 44.6 °F - 30.2 °F 57% 30.45 in 10.0 mi Calm Calm - N/A   Unknown
7:35 PM 42.8 °F - 32.0 °F 66% 30.45 in 10.0 mi Calm Calm - N/A   Unknown
7:55 PM 41.0 °F - 32.0 °F 70% 30.46 in 10.0 mi Calm Calm - N/A   Unknown
8:15 PM 41.0 °F - 32.0 °F 70% 30.45 in 10.0 mi Calm Calm - N/A   Unknown
8:35 PM 39.2 °F - 32.0 °F 75% 30.46 in 10.0 mi Calm Calm - N/A   Unknown
8:55 PM 39.2 °F - 32.0 °F 75% 30.45 in 10.0 mi Calm Calm - N/A   Unknown
9:15 PM 39.2 °F - 32.0 °F 75% 30.45 in 10.0 mi Calm Calm - N/A   Unknown
9:35 PM 39.2 °F - 33.8 °F 81% 30.45 in 10.0 mi Calm Calm - N/A   Unknown
9:55 PM 39.2 °F - 32.0 °F 75% 30.45 in 10.0 mi Calm Calm - N/A   Unknown
10:15 PM 39.2 °F - 33.8 °F 81% 30.45 in 10.0 mi Calm Calm - N/A   Unknown
10:35 PM 39.2 °F - 33.8 °F 81% 30.46 in 10.0 mi Calm Calm - N/A   Unknown
10:55 PM 39.2 °F - 32.0 °F 75% 30.45 in 10.0 mi Calm Calm - N/A   Unknown
11:15 PM 41.0 °F 38.0 °F 32.0 °F 70% 30.46 in 10.0 mi NNW 4.6 mph - N/A   Unknown
11:35 PM 41.0 °F 38.0 °F 32.0 °F 70% 30.46 in 10.0 mi North 4.6 mph - N/A   Unknown
11:55 PM 42.8 °F - 32.0 °F 66% 30.46 in 10.0 mi Calm Calm - N/A   Unknown